WS Maaseik 1 Meer informatie WS Maaseik 1


WS Maaseik 2 Meer informatie WS Maaseik 2


Regen radar Meer informatie rain snow radar


Bezoek onze andere website:

Vorige versie
weerstation Maaseik


Bezoek ook eens deze sites:

Weerstation Geleen



Het weer levert geen direct gevaar op.    Er zijn geen waarschuwingen afgegeven.

15 daagse weersverwachting 's-Hertogenbosch (NL)

  • Overzicht
  • Per uur
  • 15 dagen
  • Extra
  • Vergelijk
  • Kaarten
  • Dagkaart
  • Meer »
  • Info
  • Statistieken
  • Directe link
    Temp 6h Neerslag Wind  
 06:10     21:20    Daglengte: 15:10 Vandaag
14:00
21°
 
2
20:00
21°
 
2
 06:12     21:18    Daglengte: 15:06 Morgen
02:00
17°
 
3
08:00
16°
2.0 mm
4
14:00
19°
3.1 mm
6
20:00
19°
0.6 mm
5
 06:14     21:16    Daglengte: 15:02 Zaterdag 07 Aug
02:00
15°
 
4
08:00
15°
 
3
14:00
21°
3.3 mm
4
20:00
19°
7.2 mm
4
 06:15     21:14    Daglengte: 14:59 Zondag 08 Aug
02:00
15°
7.0 mm
4
08:00
15°
5.9 mm
7
Locatie info
Region: Noord-Brabant
Latitude: 51.6992°N
Longitude: 5.3042°E
7 masl
Temp/Neerslag /Baro Onweer/Dauwpunt
    Temp Baro 1h Neerslag Dauwpunt Wind UV Bewolking  
 06:10     21:20    Daglengte: 15:10 Vandaag
14:00
21°
1008.2 hPa
26%
14.9°
2
Windvlaag: 2.3 m/s
48%
15:00
21°
1007.7 hPa
22%
16.1°
2
Windvlaag: 1.6 m/s
75%
16:00
22°
1007.0 hPa
37%
15.6°
2
Windvlaag: 2 m/s
86%
17:00
22°
1006.4 hPa
37%
13.7°
2
Windvlaag: 2.1 m/s
72%
18:00
21°
1006.1 hPa
39%
13.3°
2
Windvlaag: 3.4 m/s
54%
19:00
21°
1005.6 hPa
13%
12.8°
2
Windvlaag: 3.6 m/s
41%
20:00
21°
1005.2 hPa   13.2°
2
Windvlaag: 3.6 m/s
9%
21:00
20°
1005.0 hPa   14.2°
2
Windvlaag: 3.8 m/s
8%
22:00
18°
1004.9 hPa   14.4°
2
Windvlaag: 4 m/s
9%
23:00
18°
1004.5 hPa
15%
14.4°
3
Windvlaag: 4.3 m/s
28%
 06:12     21:18    Daglengte: 15:06 Morgen
00:00
17°
1003.9 hPa
16%
14.2°
3
Windvlaag: 5.6 m/s
15%
01:00
17°
1003.2 hPa
21%
14.0°
3
Windvlaag: 7.1 m/s
45%
02:00
17°
1002.8 hPa
44%
13.6°
3
Windvlaag: 8.1 m/s
23%
03:00
17°
1002.1 hPa   14.3°
4
Windvlaag: 7.2 m/s
84%
04:00
17°
1001.6 hPa
76%
14.5°
4
Windvlaag: 9 m/s
86%
05:00
16°
1000.9 hPa 1.5 mm
80%
14.2°
4
Windvlaag: 8.8 m/s
86% warningclass
06:00
16°
1000.7 hPa 0.5 mm
80%
14.7°
4
Windvlaag: 7.9 m/s
66%
07:00
16°
1000.8 hPa
76%
15.1°
4
Windvlaag: 6.8 m/s
85%
08:00
16°
1000.9 hPa
80%
15.4°
4
Windvlaag: 7.3 m/s
66%
09:00
17°
1001.2 hPa
82%
15.1°
5
Windvlaag: 7.4 m/s
22%
10:00
17°
1001.4 hPa 0.9 mm
82%
15.8°
5
Windvlaag: 8 m/s
52%
11:00
18°
1001.6 hPa 0.7 mm
82%
14.9°
6
Windvlaag: 8.1 m/s
55%
12:00
19°
1001.8 hPa 0.7 mm
82%
15.8°
6
Windvlaag: 8.4 m/s
59%
13:00
19°
1001.9 hPa 0.7 mm
82%
15.2°
6
Windvlaag: 9.8 m/s
66%
14:00
19°
1002.1 hPa
82%
15.5°
6
Windvlaag: 10.1 m/s
56%
15:00
19°
1002.1 hPa 0.6 mm
82%
15.4°
7
Windvlaag: 10 m/s
60%
16:00
19°
1002.3 hPa
77%
15.4°
7
Windvlaag: 9.3 m/s
43%
17:00
19°
1002.7 hPa
67%
14.2°
7
Windvlaag: 8.7 m/s
17%
18:00
19°
1002.8 hPa
16%
13.1°
6
Windvlaag: 8 m/s
7%
19:00
19°
1003.3 hPa
14%
12.9°
6
Windvlaag: 7.1 m/s
8%
20:00
19°
1003.5 hPa
14%
12.1°
5
Windvlaag: 6.9 m/s
7%
21:00
18°
1003.9 hPa
16%
11.6°
4
Windvlaag: 6.2 m/s
6%
22:00
17°
1004.4 hPa
14%
11.5°
4
Windvlaag: 6.9 m/s
4%
23:00
16°
1004.6 hPa
14%
11.3°
4
Windvlaag: 7.1 m/s
6%
 06:14     21:16    Daglengte: 15:02 Zaterdag 07 Aug
00:00
16°
1004.6 hPa
14%
10.9°
4
Windvlaag: 7.1 m/s
7%
01:00
16°
1004.7 hPa
68%
11.1°
4
Windvlaag: 7.8 m/s
62%
02:00
15°
1004.7 hPa
79%
11.8°
4
Windvlaag: 7.6 m/s
16%
03:00
15°
1004.4 hPa
80%
12.3°
4
Windvlaag: 8.1 m/s
42%
04:00
15°
1004.4 hPa
81%
12.4°
4
Windvlaag: 7.7 m/s
30%
05:00
15°
1004.3 hPa
72%
12.8°
3
Windvlaag: 7.3 m/s
43%
06:00
14°
1004.1 hPa
64%
12.5°
4
Windvlaag: 7.2 m/s
60%
07:00
14°
1004.0 hPa
16%
12.7°
3
Windvlaag: 6.5 m/s
18%
08:00
15°
1004.1 hPa
14%
12.7°
3
Windvlaag: 5.5 m/s
17%
09:00
15°
1004.0 hPa
14%
12.9°
3
Windvlaag: 5.8 m/s
16%
10:00
16°
1003.8 hPa
14%
13.3°
3
Windvlaag: 5.1 m/s
47%
11:00
18°
1003.2 hPa 1.1 mm
95%
10.1°
3
Windvlaag: 4.2 m/s
41%
12:00
20°
1002.6 hPa 1.1 mm
47%
9.8°
4
Windvlaag: 7.1 m/s
49%
13:00
20°
1002.2 hPa 1.1 mm
92%
9.7°
4
Windvlaag: 7 m/s
64%
14:00
21°
1001.6 hPa
49%
9.9°
4
Windvlaag: 6.2 m/s
56%
15:00
21°
1001.2 hPa
88%
10.0°
5
Windvlaag: 7.3 m/s
57%
16:00
21°
1001.1 hPa 1.7 mm
100%
11.2°
4
Windvlaag: 8 m/s
67%
17:00
21°
1001.0 hPa 1.1 mm
100%
9.6°
4
Windvlaag: 7.8 m/s
43%
18:00
21°
1000.5 hPa 1.3 mm
59%
10.1°
4
Windvlaag: 7 m/s
68%
19:00
20°
1000.8 hPa 2.2 mm
100%
10.2°
3
Windvlaag: 7.7 m/s
69%
20:00
19°
1000.9 hPa 1.0 mm
100%
10.8°
4
Windvlaag: 7.3 m/s
83%
21:00
17°
1000.7 hPa 1.0 mm
100%
11.7°
3
Windvlaag: 8.3 m/s
80%
22:00
17°
1001.2 hPa 1.7 mm
89%
11.7°
3
Windvlaag: 7 m/s
79%
23:00
17°
1001.3 hPa 1.1 mm
95%
11.5°
3
Windvlaag: 7.3 m/s
51%
 06:15     21:14    Daglengte: 14:59 Zondag 08 Aug
00:00
16°
1001.5 hPa 1.6 mm
97%
12.1°
3
Windvlaag: 7.9 m/s
59%
01:00
16°
1001.7 hPa 1.5 mm
85%
11.4°
4
Windvlaag: 8.6 m/s
62%
02:00
15°
1001.7 hPa
21%
12.5°
4
Windvlaag: 10.2 m/s
84%
03:00
15°
1001.5 hPa 2.2 mm
25%
12.8°
6
Windvlaag: 10.9 m/s
87%
04:00
15°
1001.6 hPa 1.5 mm
90%
13.0°
6
Windvlaag: 10.2 m/s
99%
05:00
15°
1001.6 hPa 1.5 mm
100%
12.8°
6
Windvlaag: 9.5 m/s
90%
06:00
15°
1001.8 hPa 1.6 mm
100%
12.8°
6
Windvlaag: 8.8 m/s
84%
07:00
14°
1002.3 hPa
39%
12.9°
6
Windvlaag: 9.7 m/s
96%
08:00
15°
1003.0 hPa
84%
13.4°
7
Windvlaag: 11.1 m/s
95%
09:00
16°
1004.0 hPa
85%
-35.9°
8
Windvlaag: 0 m/s
97%
Temp/Neerslag /Baro Onweer/Dauwpunt
    Temp Baro Neerslag Dauwpunt Wind Bewolking  
 06:10     21:20    Daglengte: 15:10 Vandaag
14:00
21°
1008.2 hPa   14.9°
2
48%
17:00
22°
1006.4 hPa   13.7°
2
72%
20:00
21°
1005.2 hPa   13.2°
2
9%
23:00
18°
1004.5 hPa   14.4°
3
28%
 06:12     21:18    Daglengte: 15:06 Morgen
02:00
17°
1002.8 hPa   13.6°
3
23%
05:00
16°
1000.9 hPa 1.5 mm 14.2°
4
86% warningclass
08:00
16°
1000.9 hPa 0.5 mm 15.4°
4
66%
11:00
18°
1001.6 hPa 1.6 mm 14.9°
6
55%
14:00
19°
1002.1 hPa 1.5 mm 15.5°
6
56%
17:00
19°
1002.7 hPa 0.6 mm 14.2°
7
17%
20:00
19°
1003.5 hPa   12.1°
5
7%
23:00
16°
1004.6 hPa   11.3°
4
6%
 06:14     21:16    Daglengte: 15:02 Zaterdag 07 Aug
02:00
15°
1004.7 hPa   11.8°
4
16%
05:00
15°
1004.3 hPa   12.8°
3
43%
08:00
15°
1004.1 hPa   12.7°
3
17%
11:00
18°
1003.2 hPa 1.1 mm 10.1°
3
41%
14:00
21°
1001.6 hPa 2.2 mm 9.9°
4
56%
17:00
21°
1001.0 hPa 2.8 mm 9.6°
4
43%
20:00
19°
1000.9 hPa 4.4 mm 10.8°
4
83%
23:00
17°
1001.3 hPa 3.9 mm 11.5°
3
51%
 06:15     21:14    Daglengte: 14:59 Zondag 08 Aug
02:00
15°
1001.7 hPa 3.1 mm 12.5°
4
84%
05:00
15°
1001.6 hPa 5.2 mm 12.8°
6
90%
08:00
15°
1003.0 hPa 4.5 mm 13.4°
7
95%
11:00
18°
1005.4 hPa   15.6°
7
0%
14:00
20°
1006.8 hPa 2.7 mm 14.8°
8
60%
17:00
20°
1009.0 hPa 13.7 mm 13.4°
8
0%
20:00
18°
1011.0 hPa 14.0 mm 11.3°
7
0%
23:00
16°
1013.2 hPa 14.0 mm 10.3°
6
0%
 06:17     21:13    Daglengte: 14:56 Maandag 09 Aug
02:00
14°
1014.0 hPa 14.0 mm 9.5°
5
0%
05:00
13°
1014.3 hPa 14.0 mm 10.2°
6
0%
08:00
14°
1015.3 hPa 14.0 mm 11.7°
6
0%
11:00
18°
1017.0 hPa 14.3 mm 13.2°
7
1%
14:00
19°
1017.6 hPa 15.4 mm 14.3°
6
1%
17:00
20°
1018.1 hPa 16.6 mm 15.1°
6
1%
20:00
17°
1018.8 hPa 17.8 mm 15.1°
4
1%
23:00
14°
1020.0 hPa 18.1 mm 13.6°
3
1%
 06:18     21:11    Daglengte: 14:53 Dinsdag 10 Aug
02:00
14°
1020.5 hPa 18.1 mm 13.3°
4
1%
05:00
13°
1020.5 hPa 18.1 mm 12.7°
4
0%
08:00
15°
1021.0 hPa 18.1 mm 13.9°
4
1%
11:00
19°
1021.8 hPa 18.1 mm 15.6°
6
1%
14:00
22°
1021.0 hPa 18.3 mm 14.6°
5
1%
17:00
23°
1020.3 hPa 18.5 mm 15.6°
4
1%
20:00
20°
1020.2 hPa 18.7 mm 16.5°
2
1%
23:00
16°
1020.8 hPa 18.7 mm 12.8°
2
0%
 06:20     21:09    Daglengte: 14:49 Woensdag 11 Aug
02:00
15°
1020.3 hPa 18.7 mm 12.9°
2
0%
05:00
14°
1019.7 hPa 18.7 mm 13.0°
3
0%
08:00
16°
1020.1 hPa 18.7 mm 13.4°
3
0%
11:00
21°
1020.3 hPa 18.7 mm 14.0°
4
1%
14:00
24°
1020.4 hPa 18.8 mm 15.0°
5
1%
17:00
24°
1020.2 hPa 19.1 mm 15.4°
4
0%
20:00
21°
1020.8 hPa 19.3 mm 16.6°
3
0%
23:00
17°
1022.1 hPa 19.3 mm 14.4°
2
0%
 06:21     21:07    Daglengte: 14:46 Donderdag 12 Aug
02:00
16°
1022.4 hPa 19.4 mm 13.6°
1
0%
05:00
15°
1022.3 hPa 19.4 mm 12.9°
0
0%
08:00
17°
1022.8 hPa 19.7 mm 14.0°
1
0%
11:00
20°
1023.5 hPa   16.3°
1
1%
14:00
23°
1023.4 hPa 39.4 mm 17.1°
0
1%
20:00
22°
1022.9 hPa 43.7 mm 17.7°
3
0%
 06:23     21:05    Daglengte: 14:42 Vrijdag 13 Aug
02:00
16°
1023.9 hPa 44.3 mm 14.6°
3
0%
08:00
15°
1023.8 hPa 44.3 mm 12.4°
3
0%
14:00
25°
1021.8 hPa 44.3 mm 15.5°
4
1%
20:00
23°
1018.9 hPa 44.3 mm 17.3°
3
0%
 06:25     21:03    Daglengte: 14:38 Zaterdag 14 Aug
02:00
16°
1017.4 hPa 44.3 mm 12.4°
3
0%
08:00
17°
1014.7 hPa 44.3 mm 14.0°
3
0%
14:00
28°
1011.4 hPa 44.3 mm 16.8°
4
0%
20:00
26°
1006.8 hPa 44.3 mm 18.0°
3
0%
 06:26     21:01    Daglengte: 14:35 Zondag 15 Aug
02:00
18°
1007.5 hPa 50.2 mm 17.6°
5
1%
08:00
15°
1013.8 hPa 1.2 mm 12.5°
3
63%
14:00
21°
1013.8 hPa 0.4 mm 12.5°
3
61%
20:00
19°
1013.3 hPa 0.8 mm 13.4°
2
60%
 06:28     20:59    Daglengte: 14:31 Maandag 16 Aug
02:00
15°
1013.6 hPa 0.4 mm 12.1°
2
49%
08:00
15°
1013.3 hPa 0.4 mm 12.5°
3
57%
14:00
21°
1014.0 hPa 0.6 mm 13.2°
4
62%
20:00
19°
1014.7 hPa 0.8 mm 13.2°
3
59%
 06:29     20:57    Daglengte: 14:28 Dinsdag 17 Aug
02:00
15°
1015.6 hPa 0.5 mm 11.5°
2
52%
08:00
15°
1015.7 hPa 0.2 mm 12.6°
3
52%
14:00
21°
1016.0 hPa 0.7 mm 13.4°
4
61%
20:00
19°
1015.9 hPa 0.8 mm 13.5°
2
57%
 06:31     20:55    Daglengte: 14:24 Woensdag 18 Aug
02:00
15°
1016.3 hPa 0.6 mm 12.7°
2
48%
08:00
16°
1015.8 hPa 0.6 mm 13.2°
3
58%
14:00
22°
1015.7 hPa 0.8 mm 13.8°
3
56%
20:00
20°
1015.6 hPa   14.0°
2
56%
 06:33     20:53    Daglengte: 14:20 Donderdag 19 Aug
02:00
15°
1016.2 hPa 1.3 mm 12.4°
2
50%
08:00
16°
1015.6 hPa 1.4 mm 13.0°
2
51%
14:00
21°
1015.2 hPa 1.3 mm 14.0°
3
58%
20:00
19°
1015.0 hPa 1.2 mm 13.7°
2
53%
 06:34     20:51    Daglengte: 14:17 Vrijdag 20 Aug
02:00
15°
1015.3 hPa 0.3 mm 12.2°
1
47%
08:00
15°
1015.0 hPa 0.7 mm 12.7°
2
49%
  CAPE Lifted Index Hail Supercell Tornado SRH 3km CL BTM PRES CL TOP PRES Swiss DWD icon SMHI TS
 06:10     21:20    Daglengte: 15:10 Vandaag
14:00 176 J/kg 1.0 K 0 % 0 % 0 % 0 m²/s² 0 0 2.02 3
15:00 175 J/kg 0.5 K 0 % 0 % 0 % 0 m²/s² 0 0 1.79 3
16:00 212 J/kg 0.2 K 0 % 0 % 0 % 0 m²/s² 0 0 1.52 3
17:00 195 J/kg 0.1 K 0 % 0 % 0 % 0 m²/s² 0 0 1.84 3
18:00 224 J/kg -0.1 K 0 % 0 % 0 % 0 m²/s² 0 0 1.82 3
19:00 196 J/kg 0.2 K 0 % 0 % 0 % 0 m²/s² 0 0 2.96 3
20:00 184 J/kg 0.2 K 0 % 0 % 0 % 0 m²/s² 0 0 3.11 1
21:00 157 J/kg 0.2 K 0 % 0 % 0 % 0 m²/s² 0 0 2.81 2
22:00 97 J/kg 0.4 K 0 % 0 % 0 % 0 m²/s² 0 0 2.53 2
23:00 82 J/kg 0.3 K 0 % 0 % 0 % 0 m²/s² 0 0 2.22 3
 06:12     21:18    Daglengte: 15:06 Morgen
00:00 120 J/kg -0.3 K 0 % 0 % 0 % 0 m²/s² 0 0 1.32 2
01:00 86 J/kg -0.2 K 0 % 0 % 0 % 0 m²/s² 0 0 0.79 2
02:00 52 J/kg 0.4 K 0 % 0 % 0 % 0 m²/s² 0 0 1.09 2
03:00 21 J/kg -0.1 K 0 % 0 % 0 % 0 m²/s² 0 0 0.17 3
04:00 1 J/kg 0.0 K 0 % 0 % 0 % 0 m²/s² 0 0 0.12 61
05:00 23 J/kg -0.5 K 0 % 0 % 0 % 0 m²/s² 0 0 -0.2 95
06:00 47 J/kg -1.7 K 0 % 0 % 0 % 0 m²/s² 0 0 -1.37 80
07:00 63 J/kg -1.3 K 0 % 0 % 0 % 0 m²/s² 0 0 -1 3
08:00 233 J/kg -0.9 K 0 % 0 % 0 % 0 m²/s² 0 0 -0.42 3
09:00 66 J/kg 0.3 K 0 % 0 % 0 % 0 m²/s² 0 0 2.43 3
10:00 169 J/kg -0.2 K 0 % 0 % 0 % 0 m²/s² 0 0 1.87 80
11:00 244 J/kg -0.4 K 0 % 0 % 0 % 0 m²/s² 0 0 2.24 80
12:00 164 J/kg 0.0 K 0 % 0 % 0 % 0 m²/s² 0 0 2.07 80
13:00 191 J/kg 0.0 K 0 % 0 % 0 % 0 m²/s² 0 0 1.74 80
14:00 150 J/kg 0.2 K 0 % 0 % 0 % 0 m²/s² 0 0 2 3
15:00 297 J/kg -0.7 K 0 % 0 % 0 % 0 m²/s² 0 0 -0.49 80
16:00 518 J/kg -1.8 K 0 % 0 % 0 % 0 m²/s² 0 0 -0.42 2
17:00 493 J/kg -1.9 K 0 % 0 % 0 % 0 m²/s² 0 0 0.86 2
18:00 140 J/kg -0.4 K 0 % 0 % 0 % 0 m²/s² 0 0 3.02 2
19:00 113 J/kg -0.4 K 0 % 0 % 0 % 0 m²/s² 0 0 2.84 2
20:00 74 J/kg 0.2 K 0 % 0 % 0 % 0 m²/s² 0 0 3.53 2
21:00 11 J/kg 0.8 K 0 % 0 % 0 % 0 m²/s² 0 0 4.46 2
22:00 1 J/kg 1.7 K 0 % 0 % 0 % 0 m²/s² 0 0 5.78 1
23:00 0 J/kg 1.8 K 0 % 0 % 0 % 0 m²/s² 0 0 5.97 1
 06:14     21:16    Daglengte: 15:02 Zaterdag 07 Aug
00:00 0 J/kg 2.8 K 0 % 0 % 0 % 0 m²/s² 0 0 6.85 2
01:00 0 J/kg 3.5 K 0 % 0 % 0 % 0 m²/s² 0 0 6.98 3
02:00 0 J/kg 4.3 K 0 % 0 % 0 % 0 m²/s² 0 0 7.78 3
03:00 0 J/kg 4.9 K 0 % 0 % 0 % 0 m²/s² 0 0 8.47 3
04:00 0 J/kg 5.0 K 0 % 0 % 0 % 0 m²/s² 0 0 8.39 3
05:00 0 J/kg 4.2 K 0 % 0 % 0 % 0 m²/s² 0 0 7.32 3
06:00 0 J/kg 3.8 K 0 % 0 % 0 % 0 m²/s² 0 0 6.83 3
07:00 0 J/kg 3.3 K 0 % 0 % 0 % 0 m²/s² 0 0 6.24 2
08:00 0 J/kg 2.8 K 0 % 0 % 0 % 0 m²/s² 0 0 5.29 1
09:00 25 J/kg 1.7 K 0 % 0 % 0 % 0 m²/s² 0 0 3.98 2
10:00 68 J/kg 0.8 K 0 % 0 % 0 % 0 m²/s² 0 0 2.69 2
11:00 101 J/kg 0.5 K 0 % 0 % 0 % 0 m²/s² 0 0 2.09 2
12:00 104 J/kg 0.8 K 0 % 0 % 0 % 0 m²/s² 0 0 2.45 1
13:00 155 J/kg 0.3 K 0 % 0 % 0 % 0 m²/s² 0 0 1.98 2
14:00 160 J/kg 0.0 K 0 % 0 % 0 % 0 m²/s² 0 0 1.95 2
15:00 169 J/kg -0.2 K 0 % 0 % 0 % 0 m²/s² 0 0 1.81 2
16:00 187 J/kg -0.3 K 0 % 0 % 0 % 0 m²/s² 0 0 1.71 2
17:00 241 J/kg -0.6 K 0 % 0 % 0 % 0 m²/s² 0 0 1.62 80
18:00 272 J/kg -0.7 K 0 % 0 % 0 % 0 m²/s² 0 0 1.31 3
19:00 372 J/kg -1.3 K 0 % 0 % 0 % 0 m²/s² 0 0 0.65 3
20:00 374 J/kg -1.2 K 0 % 0 % 0 % 0 m²/s² 0 0 0.69 3
21:00 504 J/kg -1.8 K 0 % 0 % 0 % 0 m²/s² 0 0 -0.15 80
22:00 568 J/kg -2.2 K 0 % 0 % 0 % 0 m²/s² 0 0 -1.09 3
23:00 439 J/kg -1.5 K 0 % 0 % 0 % 0 m²/s² 0 0 -0.78 80
 06:15     21:14    Daglengte: 14:59 Zondag 08 Aug
00:00 225 J/kg -1.8 K 0 % 0 % 0 % 0 m²/s² 0 0 -1.47 80
01:00 202 J/kg -1.8 K 0 % 0 % 0 % 0 m²/s² 0 0 -1.35 3
02:00 206 J/kg -0.9 K 0 % 0 % 0 % 0 m²/s² 0 0 -0.21 3
03:00 9 J/kg -0.3 K 0 % 0 % 0 % 0 m²/s² 0 0 0.66 3
04:00 97 J/kg -0.4 K 0 % 0 % 0 % 0 m²/s² 0 0 -0.07 3
05:00 0 J/kg 0.9 K 0 % 0 % 0 % 0 m²/s² 0 0 1.5 3
06:00 0 J/kg -0.3 K 0 % 0 % 0 % 0 m²/s² 0 0 0.75 61
07:00 36 J/kg -1.4 K 0 % 0 % 0 % 0 m²/s² 0 0 -0.95 3
08:00 252 J/kg -1.1 K 0 % 0 % 0 % 0 m²/s² 0 0 -0.41 3
09:00 0 J/kg 0.0 K 0 % 0 % 0 % 0 m²/s² 0 0 13.83 3
Temp Baro Wind Neerslag
  EWN Forecast EWN WRFDA DWD ICON FMI HIRLAM MET Norway GFS
 06:10     21:20    Daglengte: 15:10 Vandaag
14:00 21.2° 1008.2 hPa 2.0 m/s 0.0 mm 22.7° 1007.3 hPa 1.8 m/s 0.0 mm 21.8° 1008.3 hPa 2.4 m/s -1.9 mm 21.1° 1008.1 hPa 2.0 m/s 0.0 mm 22.6° 1007.8 hPa 2.0 m/s
17:00 21.7° 1006.4 hPa 2.0 m/s 0.0 mm 23.2° 1005.5 hPa 2.7 m/s 0.0 mm 21.4° 1006.5 hPa 1.9 m/s 0.2 mm 22.1° 1006.3 hPa 2.1 m/s 0.0 mm 21.9° 1006.3 hPa 2.6 m/s
20:00 21.0° 1005.2 hPa 2.0 m/s 0.0 mm 22.6° 1004.4 hPa 2.5 m/s 0.0 mm 21.0° 1005.2 hPa 1.9 m/s 0.0 mm 21.0° 1005.3 hPa 1.5 m/s 0.0 mm 20.6° 1004.8 hPa 2.4 m/s
23:00 17.6° 1004.5 hPa 2.9 m/s 0.0 mm 18.2° 1003.4 hPa 3.3 m/s 0.0 mm 17.8° 1004.9 hPa 3.0 m/s 0.0 mm 17.5° 1004.5 hPa 2.0 m/s 0.0 mm 16.2° 1004.3 hPa 3.7 m/s
 06:12     21:18    Daglengte: 15:06 Morgen
02:00 17.1° 1002.8 hPa 3.4 m/s 0.0 mm 17.2° 1002.2 hPa 4.1 m/s 0.0 mm 16.7° 1002.8 hPa 2.9 m/s 0.0 mm 17.4° 1002.5 hPa 3.2 m/s 0.0 mm 16.7° 1002.5 hPa 5.2 m/s
05:00 16.2° 1000.9 hPa 3.9 m/s 1.5 mm 15.9° 1000.4 hPa 3.3 m/s 0.2 mm 16.1° 1001.0 hPa 3.7 m/s 2.0 mm 16.9° 1000.3 hPa 3.9 m/s 0.0 mm 15.2° 1001.3 hPa 5.5 m/s
08:00 16.4° 1000.9 hPa 4.0 m/s 0.5 mm 16.6° 1000.1 hPa 5.4 m/s 2.0 mm 16.5° 1001.2 hPa 3.8 m/s 1.0 mm 16.5° 1000.0 hPa 3.9 m/s 0.0 mm 15.9° 1001.5 hPa 5.6 m/s
11:00 17.7° 1001.6 hPa 5.6 m/s 1.6 mm 19.7° 1000.7 hPa 6.9 m/s 4.7 mm 18.2° 1001.8 hPa 4.6 m/s 1.4 mm 17.4° 1000.6 hPa 5.5 m/s 0.0 mm 17.9° 1002.2 hPa 7.2 m/s
14:00 18.5° 1002.1 hPa 6.3 m/s 1.5 mm 19.2° 1001.3 hPa 7.0 m/s 5.1 mm 19.9° 1002.5 hPa 5.7 m/s 1.1 mm 17.8° 1000.7 hPa 6.3 m/s 0.0 mm 19.4° 1002.5 hPa 8.9 m/s
17:00 19.1° 1002.7 hPa 6.6 m/s 0.6 mm 20.6° 1000.9 hPa 6.7 m/s 7.3 mm 21.4° 1003.1 hPa 5.8 m/s 0.4 mm 18.5° 1001.8 hPa 6.6 m/s 0.0 mm 20.0° 1002.8 hPa 7.1 m/s
20:00 18.9° 1003.5 hPa 5.1 m/s 0.0 mm 20.5° 1001.7 hPa 7.1 m/s 9.0 mm 20.4° 1003.7 hPa 3.6 m/s 0.0 mm 18.1° 1002.9 hPa 5.6 m/s 0.0 mm 19.1° 1003.5 hPa 5.9 m/s
23:00 16.3° 1004.6 hPa 4.2 m/s 0.0 mm 15.0° 1003.2 hPa 3.6 m/s 9.0 mm 16.5° 1004.6 hPa 2.3 m/s 0.0 mm 17.0° 1004.6 hPa 4.9 m/s 0.0 mm 15.9° 1004.7 hPa 4.7 m/s
 06:14     21:16    Daglengte: 15:02 Zaterdag 07 Aug
02:00 15.4° 1004.7 hPa 4.1 m/s 0.0 mm 13.7° 1002.6 hPa 4.6 m/s 9.0 mm 15.6° 1004.9 hPa 2.8 m/s 0.2 mm 15.7° 1004.8 hPa 4.2 m/s 0.0 mm 13.5° 1004.9 hPa 4.1 m/s
05:00 14.5° 1004.3 hPa 3.5 m/s 0.0 mm 12.0° 1002.9 hPa 3.9 m/s 9.0 mm 14.9° 1004.2 hPa 1.7 m/s 0.3 mm 13.7° 1004.6 hPa 3.6 m/s 0.0 mm 12.8° 1004.9 hPa 3.8 m/s
08:00 14.7° 1004.1 hPa 3.0 m/s 0.0 mm 15.0° 1002.8 hPa 4.8 m/s 9.0 mm 15.5° 1003.9 hPa 2.4 m/s 0.1 mm 14.3° 1004.8 hPa 3.9 m/s 0.0 mm 14.8° 1004.5 hPa 3.5 m/s
11:00 18.4° 1003.2 hPa 3.4 m/s 1.1 mm 19.1° 1002.4 hPa 5.2 m/s 9.0 mm 19.2° 1003.3 hPa 3.4 m/s 0.0 mm 18.5° 1003.7 hPa 4.4 m/s
14:00 21.0° 1001.6 hPa 4.0 m/s 2.2 mm 21.1° 1001.1 hPa 4.7 m/s 9.1 mm 21.7° 1002.1 hPa 3.4 m/s 0.0 mm 20.5° 1002.8 hPa 5.6 m/s
17:00 20.7° 1001.0 hPa 3.7 m/s 2.8 mm 21.9° 1000.3 hPa 3.1 m/s 10.2 mm 20.9° 1001.2 hPa 3.6 m/s 0.5 mm 21.4° 1002.1 hPa 5.8 m/s
20:00 18.6° 1000.9 hPa 3.6 m/s 4.4 mm 20.7° 999.7 hPa 2.7 m/s 10.9 mm 18.5° 1001.1 hPa 3.4 m/s 0.2 mm 18.8° 1002.1 hPa 5.1 m/s
23:00 16.5° 1001.3 hPa 3.2 m/s 3.9 mm 18.3° 1000.1 hPa 2.8 m/s 11.7 mm 16.3° 1001.2 hPa 2.8 m/s 0.6 mm 15.5° 1002.8 hPa 5.3 m/s
 06:15     21:14    Daglengte: 14:59 Zondag 08 Aug
02:00 15.4° 1001.7 hPa 4.4 m/s 3.1 mm 14.9° 1000.0 hPa 3.6 m/s 12.7 mm 15.8° 1001.8 hPa 3.6 m/s 0.5 mm 13.7° 1003.0 hPa 5.1 m/s
05:00 14.6° 1001.6 hPa 5.5 m/s 5.2 mm 12.7° 1000.6 hPa 4.1 m/s 13.0 mm 15.3° 1001.3 hPa 5.2 m/s 0.2 mm 13.4° 1003.4 hPa 6.0 m/s
08:00 15.2° 1003.0 hPa 6.7 m/s 4.5 mm 15.4° 1001.2 hPa 6.5 m/s 13.1 mm 15.6° 1002.8 hPa 6.2 m/s 0.2 mm 13.7° 1004.2 hPa 7.2 m/s
11:00 17.6° 1005.4 hPa 6.9 m/s 0.0 mm 17.9° 1005.4 hPa 6.7 m/s 0.0 mm 15.3° 1006.1 hPa 8.3 m/s 12.4 mm
14:00 19.7° 1006.8 hPa 7.8 m/s 2.7 mm 19.8° 1006.6 hPa 7.7 m/s 0.2 mm 18.8° 1007.5 hPa 8.5 m/s 12.9 mm
17:00 20.1° 1009.0 hPa 8.5 m/s 13.7 mm 20.1° 1009.0 hPa 8.5 m/s 13.7 mm
20:00 18.3° 1011.0 hPa 6.9 m/s 14.0 mm 18.3° 1011.0 hPa 6.9 m/s 14.0 mm
23:00 15.6° 1013.2 hPa 5.9 m/s 14.0 mm 15.6° 1013.2 hPa 5.9 m/s 14.0 mm
 06:17     21:13    Daglengte: 14:56 Maandag 09 Aug
02:00 14.2° 1014.0 hPa 5.4 m/s 14.0 mm 14.2° 1014.0 hPa 5.4 m/s 14.0 mm
05:00 13.0° 1014.3 hPa 5.5 m/s 14.0 mm 13.0° 1014.3 hPa 5.5 m/s 14.0 mm
08:00 14.1° 1015.3 hPa 5.9 m/s 14.0 mm 14.1° 1015.3 hPa 5.9 m/s 14.0 mm
11:00 17.9° 1017.0 hPa 7.0 m/s 14.3 mm 17.9° 1017.0 hPa 7.0 m/s 14.3 mm
14:00 18.6° 1017.6 hPa 5.9 m/s 15.4 mm 18.6° 1017.6 hPa 5.9 m/s 15.4 mm
17:00 19.6° 1018.1 hPa 5.6 m/s 16.6 mm 19.6° 1018.1 hPa 5.6 m/s 16.6 mm
20:00 17.3° 1018.8 hPa 3.7 m/s 17.8 mm 17.3° 1018.8 hPa 3.7 m/s 17.8 mm
23:00 14.5° 1020.0 hPa 3.5 m/s 18.1 mm 14.5° 1020.0 hPa 3.5 m/s 18.1 mm
 06:18     21:11    Daglengte: 14:53 Dinsdag 10 Aug
02:00 14.0° 1020.5 hPa 4.2 m/s 18.1 mm 14.0° 1020.5 hPa 4.2 m/s 18.1 mm
05:00 13.2° 1020.5 hPa 3.9 m/s 18.1 mm 13.2° 1020.5 hPa 3.9 m/s 18.1 mm
08:00 14.6° 1021.0 hPa 4.4 m/s 18.1 mm 14.6° 1021.0 hPa 4.4 m/s 18.1 mm
11:00 18.7° 1021.8 hPa 5.5 m/s 18.1 mm 18.7° 1021.8 hPa 5.5 m/s 18.1 mm
14:00 21.6° 1021.0 hPa 5.1 m/s 18.3 mm 21.6° 1021.0 hPa 5.1 m/s 18.3 mm
17:00 22.6° 1020.3 hPa 4.4 m/s 18.5 mm 22.7° 1020.3 hPa 4.4 m/s 18.5 mm
20:00 20.4° 1020.2 hPa 2.1 m/s 18.7 mm 20.4° 1020.2 hPa 2.1 m/s 18.7 mm
23:00 15.8° 1020.8 hPa 1.6 m/s 18.7 mm 15.8° 1020.8 hPa 1.6 m/s 18.7 mm
 06:20     21:09    Daglengte: 14:49 Woensdag 11 Aug
02:00 14.8° 1020.3 hPa 2.4 m/s 18.7 mm 14.8° 1020.3 hPa 2.4 m/s 18.7 mm
05:00 14.2° 1019.7 hPa 2.8 m/s 18.7 mm 14.2° 1019.7 hPa 2.8 m/s 18.7 mm
08:00 15.8° 1020.1 hPa 2.6 m/s 18.7 mm 15.8° 1020.1 hPa 2.6 m/s 18.7 mm
11:00 20.7° 1020.3 hPa 4.1 m/s 18.7 mm 20.7° 1020.3 hPa 4.1 m/s 18.7 mm
14:00 23.6° 1020.4 hPa 4.9 m/s 18.8 mm 23.6° 1020.4 hPa 4.9 m/s 18.8 mm
17:00 24.1° 1020.2 hPa 4.3 m/s 19.1 mm 24.1° 1020.2 hPa 4.3 m/s 19.1 mm
20:00 21.3° 1020.8 hPa 2.6 m/s 19.3 mm 21.3° 1020.8 hPa 2.6 m/s 19.3 mm
23:00 17.1° 1022.1 hPa 1.9 m/s 19.3 mm 17.1° 1022.1 hPa 1.9 m/s 19.3 mm
 06:21     21:07    Daglengte: 14:46 Donderdag 12 Aug
02:00 15.7° 1022.4 hPa 0.8 m/s 19.4 mm 15.7° 1022.4 hPa 0.8 m/s 19.4 mm
05:00 15.1° 1022.3 hPa 0.5 m/s 19.4 mm 15.1° 1022.3 hPa 0.5 m/s 19.4 mm
08:00 17.2° 1022.8 hPa 0.8 m/s 19.7 mm 17.2° 1022.8 hPa 0.8 m/s 19.7 mm
11:00 19.9° 1023.5 hPa 0.9 m/s 19.7 mm 19.9° 1023.5 hPa 0.9 m/s 19.7 mm
14:00 23.2° 1023.4 hPa 0.5 m/s 19.7 mm 23.2° 1023.4 hPa 0.5 m/s 19.7 mm
20:00 21.7° 1022.9 hPa 3.0 m/s 22.2 mm 21.7° 1022.9 hPa 3.0 m/s 22.2 mm
 06:23     21:05    Daglengte: 14:42 Vrijdag 13 Aug
02:00 15.6° 1023.9 hPa 3.2 m/s 22.2 mm 15.6° 1023.9 hPa 3.2 m/s 22.2 mm
08:00 15.1° 1023.8 hPa 3.2 m/s 22.2 mm 15.1° 1023.8 hPa 3.2 m/s 22.2 mm
14:00 24.8° 1021.8 hPa 4.0 m/s 22.2 mm 24.8° 1021.8 hPa 4.0 m/s 22.2 mm
20:00 22.5° 1018.9 hPa 3.3 m/s 22.2 mm 22.5° 1018.9 hPa 3.3 m/s 22.2 mm
 06:25     21:03    Daglengte: 14:38 Zaterdag 14 Aug
02:00 16.2° 1017.4 hPa 3.5 m/s 22.2 mm 16.2° 1017.4 hPa 3.5 m/s 22.2 mm
08:00 17.1° 1014.7 hPa 2.7 m/s 22.2 mm 17.1° 1014.7 hPa 2.7 m/s 22.2 mm
14:00 28.1° 1011.4 hPa 3.6 m/s 22.2 mm 28.1° 1011.4 hPa 3.6 m/s 22.2 mm
20:00 25.7° 1006.8 hPa 3.3 m/s 22.2 mm 25.7° 1006.8 hPa 3.3 m/s 22.2 mm
 06:26     21:01    Daglengte: 14:35 Zondag 15 Aug
02:00 18.1° 1007.5 hPa 5.0 m/s 25.1 mm 18.1° 1007.5 hPa 5.0 m/s 25.1 mm
08:00 15.4° 1013.8 hPa 2.6 m/s 1.2 mm
14:00 20.7° 1013.8 hPa 3.5 m/s 0.4 mm
20:00 18.9° 1013.3 hPa 2.4 m/s 0.8 mm
 06:28     20:59    Daglengte: 14:31 Maandag 16 Aug
02:00 15.0° 1013.6 hPa 1.9 m/s 0.4 mm
08:00 15.2° 1013.3 hPa 2.9 m/s 0.4 mm
14:00 21.1° 1014.0 hPa 4.2 m/s 0.6 mm
20:00 19.0° 1014.7 hPa 2.8 m/s 0.8 mm
 06:29     20:57    Daglengte: 14:28 Dinsdag 17 Aug
02:00 14.5° 1015.6 hPa 2.3 m/s 0.5 mm
08:00 15.1° 1015.7 hPa 2.9 m/s 0.2 mm
14:00 21.4° 1016.0 hPa 3.9 m/s 0.7 mm
20:00 19.3° 1015.9 hPa 2.3 m/s 0.8 mm
 06:31     20:55    Daglengte: 14:24 Woensdag 18 Aug
02:00 15.4° 1016.3 hPa 2.0 m/s 0.6 mm
08:00 15.7° 1015.8 hPa 2.6 m/s 0.6 mm
14:00 21.8° 1015.7 hPa 3.4 m/s 0.8 mm
20:00 19.5° 1015.6 hPa 2.2 m/s 0.0 mm
 06:33     20:53    Daglengte: 14:20 Donderdag 19 Aug
02:00 15.3° 1016.2 hPa 1.7 m/s 1.3 mm
08:00 15.5° 1015.6 hPa 1.8 m/s 1.4 mm
14:00 21.5° 1015.2 hPa 2.7 m/s 1.3 mm
20:00 19.3° 1015.0 hPa 2.1 m/s 1.2 mm
 06:34     20:51    Daglengte: 14:17 Vrijdag 20 Aug
02:00 14.9° 1015.3 hPa 1.4 m/s 0.3 mm
08:00 15.0° 1015.0 hPa 1.6 m/s 0.7 mm
FMI Hirlam - 7.5 km EWN WRFDA - 12 km DWD ICON - 7 km GFS - 25 km Basiskaart






























































Updatetijd (Europe/Brussels) Resolutie Lengte Stap
FMI Hirlam 07:00, 13:00, 19:00, 01:00 7.5 km 49h 1h
EWN WRFDA 04:15, 10:15, 16:15, 22:15 12 km 73h 1h
DWD ICON 11:45, 17:45, 23:45, 05:45 7 km 75h 1h
GFS 08:30, 14:30, 20:30, 02:30 25 km 237h 3h
30+ mm
25-30 mm
20-25 mm
15-20 mm
10-15 mm
6-10 mm
4-6 mm
2-4 mm
1-2 mm
0.5-1 mm
0.2-0.5 mm
0.1-0.2 mm
30+ mm
25-30 mm
20-25 mm
15-20 mm
10-15 mm
6-10 mm
4-6 mm
2-4 mm
1-2 mm
0.5-1 mm
0.2-0.5 mm
0.1-0.2 mm
Sneeuwval
Natte sneeuw
Hagel
Vorst
30+ mm
25-30 mm
20-25 mm
15-20 mm
10-15 mm
6-10 mm
4-6 mm
2-4 mm
1-2 mm
0.5-1 mm
0.2-0.5 mm
0.1-0.2 mm
Sneeuwval
Natte sneeuw
Hagel
Vorst
Onweer
50 mm
40 mm
30 mm
26 mm
22 mm
18 mm
14 mm
10 mm
9 mm
8 mm
7 mm
6 mm
5 mm
4.5 mm
4 mm
3.5 mm
3 mm
2.5 mm
2 mm
1.5 mm
1 mm
0.8 mm
0.6 mm
0.4 mm
0.2 mm
0.05 mm
35°
30°
25°
20°
15°
10°
-5°
-10°
-15°
-20°
-25°
-30°
-35°
33> m/s
29 m/s
25 m/s
21 m/s
17 m/s
14 m/s
11 m/s
8 m/s
5 m/s
3 m/s
0 m/s
2600 J/kg
2400 J/kg
2200 J/kg
2000 J/kg
1800 J/kg
1600 J/kg
1400 J/kg
1200 J/kg
1000 J/kg
800 J/kg
600 J/kg
400 J/kg
200 J/kg
70 dBZ
65 dBZ
60 dBZ
55 dBZ
50 dBZ
45 dBZ
40 dBZ
35 dBZ
30 dBZ
25 dBZ
20 dBZ
15 dBZ
10 dBZ
5 dBZ
-1 K
-2 K
-3 K
-4 K
-5 K
-6 K
-7 K
-8 K
-9 K
950 m²/s²
900 m²/s²
850 m²/s²
800 m²/s²
750 m²/s²
700 m²/s²
650 m²/s²
600 m²/s²
550 m²/s²
500 m²/s²
450 m²/s²
400 m²/s²
350 m²/s²
300 m²/s²
250 m²/s²
200 m²/s²
150 m²/s²
100 m²/s²
46 m/s
44 m/s
42 m/s
40 m/s
38 m/s
36 m/s
34 m/s
32 m/s
30 m/s
28 m/s
26 m/s
24 m/s
22 m/s
20 m/s
16 m/s
12 m/s
8 m/s
4 m/s
30 m/s
28 m/s
26 m/s
24 m/s
22 m/s
20 m/s
18 m/s
16 m/s
14 m/s
12 m/s
10 m/s
8 m/s
6 m/s
4 m/s
2 m/s
3.0
2.8
2.6
2.4
2.2
2.0
1.8
1.6
1.4
1.2
1.0
0.8
0.6
0.4
0.2
15
14
13
12
11
10
9
8
7
6
5
4
3
2
1
90%
80%
70%
60%
50%
40%
30%
20%
10%
42
40
38
36
34
32
30
28
26
24
22
20
18
16
14
12
90+ cm
80-90 cm
70-80 cm
60-70 cm
50-60 cm
40-50 cm
30-40 cm
20-30 cm
10-20 cm
1-10 cm
Sneeuwval
Natte sneeuw
Regen
>120 mm
115 mm
110 mm
105 mm
100 mm
95 mm
90 mm
85 mm
80 mm
75 mm
70 mm
65 mm
60 mm
55 mm
50 mm
45 mm
45 mm
40 mm
35 mm
30 mm
25 mm
20 mm
15 mm
10 mm
5 mm
0.1 mm
960 hPa
880 hPa
800 hPa
720 hPa
640 hPa
560 hPa
584 gpdm
568 gpdm
552 gpdm
536 gpdm
520 gpdm
504 gpdm
488 gpdm
Extreem zwaar Noodweer Kans op onweer
15% 15% 5% 50% 15%

Dag




Kaart